Miscellaneous Local Product
Issued by NWS Hastings, NE

Home | Current Version | Previous Version | Graphics & Text | Print | Product List | Glossary On
Versions: 1 2 3 4 5 6 7 8 9 10 11 12 13 14 15 16 17 18 19 20 21 22 23 24 25 26 27 28 29 30 31 32 33 34 35 36 37 38 39 40 41 42 43 44 45 46 47 48 49 50
000
AXUS43 KGID 031502
MISGRI

GID CWA HOURLY WEATHER ROUNDUP
NATIONAL WEATHER SERVICE HASTINGS NE
1000 AM CDT THU SEP 03 2015

NOTE: "FAIR" INDICATES FEW OR NO CLOUDS BELOW 12,000 FEET WITH NO
SIGNIFICANT WEATHER AND/OR OBSTRUCTIONS TO VISIBILITY.

...SOUTH CENTRAL NEBRASKA...

CITY           SKY/WX    TMP DP  RH WIND       PRES   REMARKS
GRAND ISLAND   SUNNY     81  62  52 S13       29.84S
HASTINGS       SUNNY     79  63  57 S12G18    29.84F
KEARNEY        SUNNY     79  61  53 S14       29.84R
ORD            SUNNY     77  62  59 S6        29.82S
YORK           SUNNY     77  66  69 S14       29.85S
AURORA         SUNNY     78  64  60 S14       29.84S
LEXINGTON      SUNNY     78  62  57 S10       29.83F
HOLDREGE       SUNNY     78  59  51 S14       29.84S
HEBRON         SUNNY     81  60  49 S16       29.86R

...NEBRASKA PANHANDLE...

CITY           SKY/WX    TMP DP  RH WIND       PRES   REMARKS
CHADRON        MOSUNNY   80  51  36 CALM      29.85S
ALLIANCE       MOSUNNY   73  51  46 S5        29.91F
SCOTTSBLUFF    MOSUNNY   73  54  51 W5        29.92F
SIDNEY         MOSUNNY   79  47  32 NW7       29.96S

...WESTERN AND NORTH CENTRAL NEBRASKA...

CITY           SKY/WX    TMP DP  RH WIND       PRES   REMARKS
VALENTINE      SUNNY     79  61  53 CALM      29.83S
ONEILL         SUNNY     73  68  82 S7        29.83S
BROKEN BOW     SUNNY     76  63  64 S6        29.84F
IMPERIAL       MOSUNNY   73  60  63 N7        29.87S
NORTH PLATTE   SUNNY     73  61  65 CALM      29.85S
MCCOOK         SUNNY     75  59  57 VRB3      29.84S

...EASTERN NEBRASKA...

CITY           SKY/WX    TMP DP  RH WIND       PRES   REMARKS
NORFOLK        SUNNY     78  66  66 S9        29.83S
SO SIOUX CITY  SUNNY     77  69  76 SE9       29.84S
TEKAMAH        SUNNY     79  71  76 SE8       29.86R
COLUMBUS       SUNNY     79  64  61 S7        29.84S
ALBION         SUNNY     75  65  72 S3        29.84S
OMAHA EPPLEY   MOSUNNY   80  68  66 S14       29.87S
OFFUTT AFB     SUNNY     79  69  71 SE9       29.87R
MILLARD        SUNNY     80  69  70 SE9       29.87R
LINCOLN        SUNNY     83  66  56 S12       29.86R
NEBRASKA CITY  SUNNY     79  64  58 S13G20    29.89R
BEATRICE       MOSUNNY   80  65  60 S14       29.87S
FALLS CITY     MOSUNNY   81  68  64 S13       29.90F

...NORTHERN KANSAS...

CITY           SKY/WX    TMP DP  RH WIND       PRES   REMARKS
GOODLAND       MOSUNNY   80  46  30 NW6       29.89S
HILL CITY      SUNNY     81  58  45 S14       29.84F
NORTON         SUNNY     79  55  44 S10       29.83F
PHILLIPSBURG   SUNNY     82  59  44 S13       29.85S
SMITH CENTER   SUNNY     81  59  47 S16       29.86S
HAYS           SUNNY     82  57  42 S18G25    29.85F
RUSSELL        SUNNY     84  59  42 S23G35    29.84F
CONCORDIA      SUNNY     81  63  54 S17G29    29.86S
SALINA         SUNNY     83  63  50 S16G28    29.88S
TOPEKA         MOSUNNY   79  67  66 S8        29.94F



USA.gov is the U.S. government's official web portal to all federal, state and local government web resources and services.